GFSWCAN_925_temp_057.txt.gz
Temp
13 12 12 11 12 13 10 7 7 8 8 9 9 9 9 10 10 10 13 11 13 17 18 17 15 14 13 13 13 15 14 13 9 9 10 11 11 10 10 14 14 14 13 12 14 14 15 15 17 15 13 10 11 16
12 13 12 11 12 13 11 7 7 8 8 9 9 9 10 10 11 10 15 12 11 12 18 16 16 14 14 13 14 13 13 13 10 9 9 8 10 9 9 12 15 14 14 15 16 16 15 13 12 14 12 9 10 14
13 13 12 12 13 13 13 9 7 8 8 9 9 9 10 10 11 10 15 13 13 17 17 16 17 16 16 15 14 11 14 13 11 11 9 8 8 8 10 10 10 12 11 11 12 14 11 10 11 11 10 10 11 13
12 13 13 12 13 13 13 12 9 9 10 9 10 10 10 10 10 10 14 15 15 16 16 16 16 16 15 15 14 14 14 14 13 13 9 9 9 8 9 8 9 8 9 8 9 9 9 10 10 9 10 10 12 13
12 13 13 12 13 14 14 13 11 11 12 11 11 11 11 10 10 10 12 14 14 15 16 16 17 15 15 16 16 15 16 15 14 13 12 10 9 8 9 8 9 9 8 8 9 8 8 9 9 9 9 11 11 11
12 13 13 12 12 14 14 13 12 12 12 11 11 11 11 10 10 10 14 14 14 13 14 16 18 17 16 15 15 16 16 17 17 18 16 14 12 9 9 9 9 12 10 8 8 8 8 9 9 8 9 10 10 10
12 13 13 12 12 13 14 14 13 12 12 11 11 11 11 10 10 12 14 12 11 12 13 16 17 19 16 16 17 17 17 17 18 17 14 14 14 13 10 9 11 12 12 10 8 7 8 8 8 8 8 9 9 9
12 13 13 12 12 14 14 14 13 12 12 11 10 11 10 10 10 12 13 11 10 12 15 17 18 17 17 17 16 16 17 15 16 16 17 15 15 13 9 13 13 12 13 13 12 9 9 9 9 8 8 8 9 8
13 13 13 12 13 14 14 14 13 13 12 11 10 10 10 11 14 13 11 10 11 12 14 18 18 17 18 17 17 16 16 14 17 15 16 14 11 10 13 14 14 14 13 14 14 13 12 10 9 8 8 8 8 8
13 13 13 13 13 15 15 14 13 13 12 11 10 13 15 13 11 11 11 13 13 13 15 17 21 19 20 18 16 16 17 17 15 16 17 13 11 15 16 15 15 14 15 14 13 12 12 12 12 10 9 8 8 8
13 13 13 13 14 15 15 14 13 12 11 12 18 18 14 11 12 13 16 17 20 19 20 21 21 21 22 18 17 19 18 18 15 16 17 15 14 15 16 16 16 15 15 14 14 14 13 13 13 12 11 9 7 7
13 13 13 14 15 15 15 14 14 12 17 16 15 16 16 14 15 18 21 21 19 19 22 22 22 22 21 19 17 17 17 17 17 19 18 13 14 16 17 17 17 16 15 14 14 14 13 13 12 12 12 11 8 7
13 13 13 15 16 16 15 14 14 13 13 15 17 17 18 20 16 19 18 21 20 23 24 24 23 22 18 17 16 17 17 15 17 16 13 16 16 16 16 17 17 17 16 15 14 14 14 13 13 13 12 12 11 10
13 13 13 13 14 14 14 14 14 12 11 19 20 14 20 21 21 23 23 22 23 23 22 22 19 21 18 16 17 16 16 19 17 13 14 15 16 17 16 17 17 17 17 17 15 14 13 14 14 14 13 13 12 11
13 14 14 13 14 14 14 14 14 11 17 20 21 16 22 24 25 23 23 21 22 22 20 19 14 17 16 14 16 16 16 15 15 14 14 16 16 17 14 14 16 15 16 17 16 15 14 14 15 14 14 14 13 13
14 14 12 14 14 13 13 14 11 14 19 20 21 22 24 23 23 23 23 22 22 22 21 17 17 13 12 12 14 13 14 13 12 14 17 17 16 16 16 16 16 16 15 16 16 16 15 15 14 14 14 14 14 13
15 16 14 13 12 12 11 12 16 18 21 21 23 25 24 21 22 19 21 22 21 21 18 16 14 13 16 13 11 13 11 13 14 15 16 15 15 15 16 16 16 16 15 15 14 15 15 15 14 14 14 14 14 14
15 15 13 12 11 10 13 13 19 21 21 22 23 24 23 23 22 21 22 21 21 20 19 15 14 14 13 13 14 14 15 16 16 17 17 16 15 15 15 16 15 16 15 15 15 15 13 15 15 16 15 15 15 15
13 13 12 13 10 13 20 19 19 21 23 24 24 23 23 23 21 21 21 20 20 19 17 15 12 13 14 16 15 15 16 16 16 16 16 16 15 15 15 15 15 16 16 14 14 14 13 14 15 15 15 15 15 14
14 14 14 14 13 17 20 22 20 22 22 24 25 24 22 21 22 21 21 21 20 20 19 17 15 16 16 17 17 16 16 16 16 16 14 16 15 16 16 15 16 15 16 14 15 13 14 13 13 14 14 13 14 14
14 13 14 13 12 16 21 23 23 24 24 24 24 24 23 23 22 22 22 21 21 20 19 19 18 18 16 16 15 14 14 14 14 16 14 13 16 16 16 16 16 16 16 14 14 14 13 13 12 13 14 14 13 13
16 14 16 14 18 21 21 23 23 23 23 24 24 23 23 22 22 22 22 21 20 20 19 18 16 16 15 15 15 15 14 14 14 12 13 14 16 15 15 16 15 15 14 15 13 14 14 12 12 13 13 13 12 12
14 14 17 19 20 18 19 22 22 23 23 23 24 23 22 22 21 21 19 20 19 18 19 17 15 15 16 16 16 14 15 14 14 13 14 15 15 15 15 14 15 14 14 14 14 14 13 11 12 12 12 12 12 11
15 18 20 21 21 18 23 22 24 23 24 23 23 22 22 21 21 21 19 19 20 20 19 17 17 18 18 17 18 17 16 16 12 13 14 12 13 14 13 13 12 12 12 13 12 8 12 12 11 11 11 11 12 11
16 16 17 12 22 22 23 23 23 23 22 23 22 23 22 22 21 20 20 21 21 19 18 17 18 18 18 18 18 17 16 16 16 15 14 13 12 10 11 11 12 12 12 12 11 11 12 12 11 11 10 11 11 10
13 20 15 23 23 23 24 23 22 23 23 23 23 22 22 22 21 20 20 20 20 19 18 18 19 18 18 16 17 16 15 14 15 15 13 13 12 13 12 10 10 11 11 11 11 11 7 10 11 11 10 10 9 10
16 22 23 24 24 24 24 24 24 24 23 23 24 22 22 21 20 20 21 20 20 18 17 17 17 17 16 15 15 14 14 13 14 14 12 11 11 11 10 10 10 11 11 11 11 11 12 11 9 11 10 11 10 9
22 23 23 24 23 24 23 23 23 23 24 24 23 22 22 21 21 21 21 18 17 17 17 16 15 15 14 14 14 15 14 13 13 13 12 11 11 11 10 10 9 9 9 8 9 11 9 10 11 10 10 10 10 9
22 24 24 23 24 24 23 24 24 25 25 25 23 23 23 21 21 20 19 18 18 18 18 17 16 16 15 14 13 13 14 14 14 14 13 13 12 11 10 9 10 10 11 9 8 8 8 9 10 10 9 9 9 9
23 25 24 24 24 24 24 26 25 25 24 24 23 22 21 20 19 18 18 18 18 18 17 17 16 16 16 15 14 13 12 12 13 14 14 14 12 11 11 10 10 10 10 10 10 9 8 9 9 10 9 9 9 9
25 25 24 25 24 25 26 25 24 23 24 24 23 23 22 20 18 18 19 19 18 17 17 17 16 15 15 15 14 13 12 11 11 11 12 12 12 11 10 10 10 10 10 10 10 10 10 10 10 9 9 9 8 8
25 24 25 24 24 25 24 24 25 24 24 22 23 22 21 19 19 18 18 17 17 18 15 16 16 14 13 12 11 11 11 11 11 11 11 11 11 10 11 11 11 11 11 10 10 10 10 10 9 9 9 8 8 8
25 25 25 25 25 24 25 24 24 24 24 24 23 22 22 21 20 19 16 17 18 18 17 16 14 13 12 12 11 9 9 8 6 7 7 7 8 8 10 10 10 10 10 11 10 10 10 9 9 9 9 8 8 8

GFSWCAN_925_temp_060.txt.gz
Temp
13 13 13 12 13 12 11 10 8 8 8 9 10 11 11 12 12 11 15 14 15 17 19 19 18 17 16 16 15 17 16 15 14 11 12 12 12 11 10 14 15 14 14 13 15 15 14 17 18 17 16 16 16 15
13 13 13 12 13 12 13 12 9 9 9 9 9 10 11 12 11 11 15 15 14 17 19 18 18 17 17 17 17 17 14 14 14 10 9 9 10 10 9 11 13 13 11 13 14 16 14 14 14 15 15 14 15 14
13 13 12 12 13 13 13 13 11 9 9 9 9 10 11 11 12 11 14 16 16 17 17 16 17 18 18 18 17 16 16 15 13 14 12 9 9 8 10 10 9 12 12 12 11 15 10 13 13 13 12 12 13 13
13 13 12 13 13 13 14 13 12 11 10 9 10 10 11 11 11 11 13 16 16 16 17 19 18 18 18 18 17 17 17 15 14 13 13 10 9 9 9 9 9 11 10 9 9 10 9 11 10 9 10 10 11 11
13 13 13 13 12 12 14 13 13 13 12 11 10 11 11 11 11 11 13 15 15 15 16 18 20 19 18 18 18 17 17 16 14 13 13 12 11 9 9 8 9 11 9 8 9 8 8 8 9 9 8 9 9 10
13 13 13 13 12 12 13 14 13 13 12 12 11 11 11 11 11 12 15 15 14 14 14 17 20 20 19 18 18 18 17 17 17 16 16 16 15 12 11 9 11 11 11 8 7 7 8 8 8 8 8 9 9 9
13 12 13 13 13 12 13 14 14 13 12 12 11 11 11 11 10 14 14 13 12 12 14 17 19 20 20 19 17 17 17 17 17 16 15 16 14 14 12 9 12 13 13 10 9 9 8 8 7 8 8 8 8 8
12 13 13 13 13 13 14 14 14 13 12 12 11 10 11 10 10 13 13 12 12 13 15 18 19 18 19 18 17 20 17 16 18 16 17 17 16 13 9 12 11 13 15 13 12 11 10 9 8 7 7 7 8 8
12 13 13 13 13 13 14 14 14 13 13 12 11 10 10 10 14 14 12 11 11 14 15 20 20 18 21 19 19 18 19 15 18 16 17 16 11 9 12 15 13 12 14 15 14 14 13 11 9 8 7 7 7 7
13 13 13 13 13 13 14 14 14 13 12 11 10 13 15 15 13 12 11 13 13 14 15 17 22 20 21 18 18 17 17 17 16 17 19 13 11 15 16 16 16 15 15 15 14 13 13 13 12 9 8 7 7 7
13 13 13 13 14 14 14 14 14 13 12 11 16 16 15 13 14 14 16 17 19 18 20 21 22 21 23 17 17 19 17 17 15 17 17 16 15 16 17 16 16 15 14 13 13 14 13 13 13 12 9 7 7 6
13 13 13 14 14 15 15 14 13 13 16 15 15 16 18 17 17 18 19 21 21 20 22 20 18 20 19 18 18 18 17 16 15 18 17 14 16 17 17 18 17 16 16 14 14 14 14 14 13 13 13 10 9 8
13 13 13 14 15 16 15 14 14 14 14 16 17 18 19 20 15 19 18 18 16 14 19 21 19 16 15 16 16 17 14 13 13 16 13 16 15 15 17 18 18 17 16 16 15 15 14 14 14 14 13 13 12 12
13 13 14 14 13 13 13 14 14 13 11 19 19 13 21 21 21 20 21 21 15 14 21 22 19 18 19 16 12 13 14 13 14 13 12 11 12 11 17 17 17 17 17 16 15 15 15 15 14 15 15 14 13 12
13 14 14 15 13 13 13 13 13 12 16 21 22 16 22 24 23 22 19 17 20 22 23 22 22 19 14 12 13 14 15 16 14 11 12 11 12 15 15 15 16 16 17 17 17 15 15 15 15 15 15 15 14 13
14 14 14 14 14 13 13 13 11 14 19 21 22 22 24 22 21 23 18 15 23 22 22 22 19 17 16 16 15 15 15 13 13 15 16 14 13 15 16 16 17 17 17 15 16 16 16 16 16 15 15 15 14 14
14 16 14 14 13 13 12 12 16 19 21 22 22 23 17 19 15 20 21 22 22 22 21 18 16 16 17 15 15 15 14 14 15 15 17 16 16 16 16 16 16 16 17 14 15 14 15 16 16 15 15 15 14 14
15 14 14 13 12 12 14 13 20 22 21 23 21 23 25 23 22 22 22 22 22 21 20 17 17 16 15 14 14 14 15 16 17 17 17 16 16 16 16 16 16 16 16 15 11 12 14 15 14 16 16 15 15 14
13 14 13 13 12 12 20 20 21 21 22 19 23 25 23 22 23 22 22 22 21 20 19 18 17 16 15 16 16 16 16 16 16 17 17 16 13 15 16 16 16 16 16 15 16 12 11 14 15 16 16 16 15 14
14 14 14 14 13 16 21 22 22 22 23 24 20 24 24 23 20 22 21 21 21 21 20 18 17 17 16 16 18 17 14 16 16 14 12 15 16 16 16 16 16 16 16 16 13 11 14 14 15 14 14 14 15 14
14 14 15 13 12 16 21 23 21 22 24 25 22 15 24 22 22 22 22 23 21 20 19 19 18 18 17 17 16 16 14 15 14 14 14 14 14 16 16 16 15 14 8 10 8 12 11 13 14 13 12 13 14 14
16 15 16 13 18 21 22 23 23 20 23 18 16 20 19 23 23 22 18 20 20 20 19 19 18 18 18 16 12 14 13 15 15 13 12 14 16 16 16 16 16 16 14 11 10 9 10 13 12 11 10 13 13 12
15 16 18 20 21 19 18 23 23 24 23 23 19 23 23 23 22 19 20 21 20 21 19 18 18 17 16 17 17 16 16 16 14 13 13 12 14 13 10 12 15 15 14 13 12 10 10 10 12 13 12 12 11 11
17 18 21 22 21 18 22 23 24 24 19 16 23 22 23 23 19 21 21 21 21 21 20 18 19 19 19 19 19 18 17 17 16 13 14 13 14 12 11 10 13 14 13 13 10 9 8 9 11 12 12 12 12 12
15 15 17 11 21 22 22 23 21 23 23 21 23 23 23 23 22 22 21 21 22 21 20 19 20 20 19 19 18 17 16 16 17 16 14 14 13 12 11 12 12 13 13 13 12 8 6 7 9 11 11 12 12 11
13 20 15 23 24 23 18 21 17 19 25 24 23 20 24 23 21 21 21 21 21 20 20 19 19 19 19 17 17 16 16 16 15 14 14 14 13 13 12 12 12 12 13 12 12 9 9 9 7 12 12 11 10 10
15 22 23 24 25 25 24 18 25 25 24 24 24 22 23 21 21 21 22 21 20 19 18 18 18 18 18 17 16 15 15 15 14 13 13 13 12 12 12 11 11 11 12 12 10 8 9 8 11 11 11 11 11 10
22 24 24 25 25 25 24 24 25 24 23 18 22 18 17 23 22 22 22 20 19 18 18 18 17 17 16 16 16 16 16 15 14 14 13 13 13 12 12 11 11 10 10 9 10 10 10 9 10 11 11 11 10 11
22 24 25 24 25 24 24 24 24 20 24 26 20 20 23 23 23 22 20 20 20 20 20 19 18 18 17 16 15 15 16 16 16 15 14 14 13 12 12 12 12 12 11 10 9 9 9 10 10 11 11 10 10 10
24 26 25 25 24 17 16 15 18 25 27 26 26 24 23 23 22 21 20 20 20 20 19 19 18 18 18 17 16 15 14 15 15 15 16 15 13 13 12 12 12 12 12 12 11 10 10 10 10 10 10 10 10 9
26 27 26 26 25 20 16 16 23 26 26 26 26 25 24 22 20 20 20 20 20 19 19 19 18 18 17 17 16 16 14 13 12 13 14 13 13 12 12 12 12 12 12 12 12 11 11 11 11 10 10 9 9 9
26 26 25 24 17 16 20 25 26 26 21 24 25 25 23 21 20 20 19 19 19 20 18 18 18 16 15 15 14 13 13 13 12 11 12 13 12 12 12 12 12 12 12 12 12 11 11 11 10 10 10 9 9 9
26 26 26 24 15 18 21 25 26 25 26 25 24 24 24 23 21 20 19 19 19 20 19 18 16 15 14 14 13 12 11 8 8 9 9 9 10 10 11 12 12 12 12 12 12 12 11 11 11 10 10 10 10 9

GFSWCAN_925_temp_063.txt.gz
Temp
13 13 13 13 13 14 13 13 11 9 9 10 11 12 12 12 13 13 15 15 15 16 17 19 19 17 15 15 15 16 15 14 13 11 11 11 10 10 9 12 12 11 11 12 12 12 12 12 15 13 12 12 13 13
13 13 13 13 13 13 13 13 13 11 9 10 10 11 12 12 12 13 14 16 16 16 17 18 18 17 17 17 15 15 14 14 12 10 10 9 9 10 9 10 11 11 9 9 10 11 10 11 11 11 11 10 11 10
13 12 13 13 13 13 13 13 13 13 10 10 10 10 11 12 12 12 12 15 15 16 17 18 18 18 18 18 18 15 14 14 13 13 11 9 7 8 9 10 10 12 11 11 10 12 9 9 10 10 10 10 10 10
12 12 13 13 13 13 13 14 13 13 12 11 10 11 11 11 11 12 11 13 15 15 15 18 19 18 18 18 17 17 16 15 14 12 11 11 9 9 9 9 9 10 10 8 9 10 8 10 8 9 9 9 9 10
12 12 13 13 13 13 12 13 13 13 13 12 12 12 11 11 11 12 12 14 15 15 14 15 17 18 18 18 18 17 17 14 12 12 12 10 10 10 9 8 8 10 10 7 8 9 7 7 8 8 8 8 8 8
12 12 13 13 13 13 12 13 14 13 13 12 12 12 11 11 11 11 15 14 14 14 13 15 20 19 20 18 18 17 16 14 14 12 13 14 13 10 9 9 11 11 11 8 8 8 7 8 8 8 7 8 8 8
12 12 13 13 13 13 13 13 14 14 13 12 12 11 11 11 10 12 14 12 13 13 13 15 17 19 19 18 18 17 17 15 14 14 13 13 12 11 10 9 10 12 12 9 9 9 8 8 8 8 7 7 7 8
12 13 13 13 13 13 13 14 14 14 14 13 12 11 11 10 10 11 14 14 13 12 13 14 18 17 20 17 15 15 14 14 15 14 15 13 12 11 8 10 10 11 12 11 9 10 9 9 8 8 7 7 7 7
12 13 13 13 13 13 13 13 14 14 13 12 11 11 10 10 13 14 13 12 12 12 13 16 17 17 19 18 15 15 15 13 14 14 13 13 9 8 9 12 10 11 12 13 12 12 10 10 9 8 8 7 7 7
12 13 13 13 13 13 13 14 14 14 13 12 10 11 13 15 14 13 12 12 11 12 13 13 17 17 15 14 14 13 14 15 13 15 15 9 9 11 12 14 12 12 12 14 13 12 12 12 10 9 8 7 7 7
12 13 13 13 13 14 14 14 14 13 12 11 14 15 14 14 14 14 14 14 14 14 13 14 14 14 16 14 12 13 13 14 14 14 14 13 13 14 14 14 14 13 13 13 13 13 13 13 12 9 8 8 8 8
12 12 13 13 14 15 15 15 14 13 14 14 13 14 15 15 15 15 16 15 13 15 13 12 14 16 16 14 13 13 12 12 12 12 12 11 14 15 15 15 14 13 13 13 13 13 13 13 13 13 10 9 9 8
12 13 13 13 14 14 15 15 14 14 14 14 14 16 18 17 14 17 15 16 14 14 13 13 14 17 16 15 13 12 12 13 11 12 11 11 10 12 13 13 15 16 15 13 13 14 13 13 13 13 11 12 11 11
12 13 13 14 13 13 13 13 14 13 12 16 18 12 18 18 18 15 14 15 14 13 13 13 14 15 14 13 12 13 14 13 13 13 11 11 10 10 10 12 15 14 14 15 14 14 13 12 13 14 13 12 12 12
13 13 14 15 14 13 13 14 13 12 13 18 20 14 21 16 14 14 14 14 15 14 13 16 19 18 15 14 14 14 15 13 11 11 11 10 10 10 11 12 15 15 15 13 12 11 14 13 14 14 14 13 12 12
14 14 14 14 14 13 13 13 12 12 16 19 20 21 22 19 17 16 17 20 21 21 20 20 18 17 16 15 15 14 14 13 12 13 14 11 12 12 14 14 15 15 15 13 11 9 11 13 14 15 15 14 14 13
14 14 14 13 13 13 12 12 13 16 19 21 21 21 18 18 17 17 21 21 21 20 18 18 16 16 16 16 14 14 13 13 14 14 15 15 13 14 14 14 15 16 15 13 13 13 14 14 15 14 13 14 14 13
13 14 14 14 13 12 13 13 17 20 20 21 18 19 20 18 21 20 20 20 19 19 18 17 17 17 16 14 14 14 14 15 15 15 14 14 14 13 13 14 15 15 15 13 12 13 13 13 14 13 14 13 13 12
13 13 13 13 12 11 17 17 18 20 22 20 20 17 16 17 16 16 19 19 19 19 18 18 16 15 16 15 14 14 15 13 12 12 11 12 12 11 11 12 13 14 13 13 12 13 12 13 13 15 15 14 14 13
15 15 14 14 13 13 18 21 21 21 22 22 18 13 13 18 16 18 21 21 20 19 18 17 16 16 15 14 13 13 13 12 12 12 12 12 10 9 11 12 13 12 9 9 9 8 9 11 13 13 13 13 13 12
15 14 14 13 12 13 18 20 20 20 19 16 15 16 17 19 20 20 19 20 20 19 18 18 18 17 17 15 14 14 14 14 12 12 11 11 13 13 10 9 9 11 9 8 8 9 9 9 11 11 12 13 13 11
15 15 14 13 16 19 19 21 21 20 20 16 14 15 17 19 20 20 19 20 20 19 18 18 17 17 17 16 15 15 14 14 14 14 12 12 11 11 10 9 8 7 11 9 7 6 7 8 9 11 12 12 12 11
15 15 16 18 18 16 15 22 21 22 16 16 18 19 21 21 20 21 20 20 20 19 18 18 18 18 17 17 16 15 16 16 14 14 12 10 11 12 12 11 12 12 12 9 8 7 8 8 10 10 12 11 11 11
16 17 19 19 20 16 22 22 18 16 18 16 18 21 21 21 20 20 20 20 20 19 17 18 18 17 17 17 16 15 16 16 14 13 12 10 10 11 11 11 12 12 11 9 9 8 8 9 9 12 12 12 12 12
13 13 15 9 20 21 21 19 15 19 20 20 20 17 20 21 20 21 20 20 20 19 18 19 18 17 17 16 16 16 16 15 14 14 14 13 12 12 12 12 12 12 10 9 8 7 8 10 10 9 11 11 11 11
11 17 13 21 22 22 22 19 18 18 21 21 20 18 19 20 21 21 21 20 19 18 18 18 18 17 16 16 15 15 15 14 14 14 13 13 13 12 11 12 11 11 10 10 9 9 9 10 10 11 10 10 10 10
13 20 22 22 23 22 15 15 17 17 19 20 18 16 17 18 21 21 20 20 18 18 18 18 18 17 17 16 15 15 14 14 13 13 13 13 12 12 11 11 10 10 10 10 10 10 10 10 10 10 10 11 10 9
20 22 22 23 24 24 19 21 20 19 21 22 20 18 18 21 21 21 20 19 19 19 18 17 17 16 16 16 16 16 15 14 14 13 13 13 12 12 11 11 10 10 10 10 10 10 10 10 11 11 10 10 10 10
20 23 23 23 23 22 17 21 18 16 15 19 19 21 21 22 21 21 20 20 19 19 18 18 18 16 16 16 16 16 16 16 16 14 14 13 12 12 12 11 11 10 10 10 10 10 10 10 10 11 10 9 9 9
22 24 23 24 23 18 16 17 19 18 21 18 23 21 21 22 21 21 20 20 20 20 19 19 19 19 18 16 15 15 15 15 15 15 14 13 13 12 12 12 12 12 11 11 10 10 10 10 10 10 10 10 9 9
25 25 24 24 17 16 16 18 20 20 17 15 15 21 21 20 21 21 20 20 20 19 19 19 18 18 18 17 16 15 14 13 13 13 14 13 13 12 12 12 12 12 12 12 12 11 11 11 11 10 10 10 10 10
25 25 25 23 20 18 19 19 20 18 15 16 14 16 21 18 19 19 20 20 20 19 19 19 18 16 16 15 14 14 13 12 12 12 12 12 12 12 12 12 13 12 12 12 12 11 11 11 10 10 10 10 10 9
25 26 25 21 20 20 18 19 18 22 19 14 15 19 21 21 20 20 20 19 20 20 18 17 16 15 14 14 12 11 11 11 11 11 11 11 11 11 11 11 12 12 12 12 12 12 11 11 11 10 10 10 10 9

GFSWCAN_925_temp_069.txt.gz
Temp
13 13 12 12 12 13 13 13 13 13 13 12 12 13 14 14 15 16 14 14 14 9 10 15 14 13 11 9 10 11 10 9 6 6 4 3 4 4 6 8 10 8 8 6 10 9 9 10 11 12 9 8 8 8
13 12 12 12 13 13 13 13 13 13 13 13 11 12 13 14 14 15 15 14 14 12 12 15 16 17 17 14 9 8 9 8 6 5 4 2 9 9 5 5 9 8 8 7 9 9 9 10 9 9 8 7 7 7
12 12 12 12 13 13 13 12 13 13 13 13 12 12 12 13 13 13 13 13 13 8 10 12 13 17 17 17 17 10 8 8 8 6 4 4 3 4 7 6 8 8 7 7 7 9 9 9 8 8 7 7 7 7
12 12 12 12 13 13 13 12 13 13 13 13 13 13 12 12 12 12 12 12 11 9 10 11 15 15 17 17 17 16 12 10 8 6 6 5 4 5 3 5 6 6 7 7 6 7 7 9 8 7 7 7 8 9
12 12 12 12 13 13 12 12 12 13 13 13 13 12 12 12 12 12 13 12 12 11 10 9 12 15 17 16 16 15 12 8 7 8 8 8 6 6 7 8 8 6 7 6 6 7 7 7 8 8 7 7 7 8
12 12 12 12 13 13 12 12 12 13 13 13 13 12 12 12 12 12 11 12 13 12 11 9 11 12 14 16 14 12 11 8 8 8 8 8 9 8 5 5 8 6 6 6 8 6 6 7 7 7 7 8 7 8
12 12 12 12 13 13 12 12 13 14 14 13 13 12 12 11 11 11 10 12 12 13 10 10 9 11 14 14 12 12 12 11 10 10 9 9 8 9 6 5 8 7 8 7 7 7 8 7 7 7 8 8 7 7
12 12 12 13 13 12 12 13 13 14 14 13 12 12 11 10 11 12 13 13 12 11 11 11 10 11 14 11 12 10 11 11 11 11 10 10 9 9 8 8 8 8 8 8 7 7 7 8 7 7 7 7 7 7
11 11 12 12 12 12 12 13 14 14 13 13 12 11 11 10 10 12 12 13 12 12 10 10 10 13 12 11 11 11 10 11 11 11 11 9 8 8 9 10 9 8 8 9 8 7 7 6 6 6 6 6 6 7
11 11 12 12 12 12 12 13 14 13 13 12 11 10 10 12 12 12 11 10 9 9 10 9 9 11 12 11 12 11 11 11 11 11 10 10 9 10 9 9 10 9 9 8 10 9 8 7 7 7 7 6 6 6
10 11 12 12 12 12 13 13 14 13 12 11 10 10 11 11 12 11 11 10 11 11 8 8 9 11 11 12 12 10 11 9 10 11 10 9 8 10 10 10 10 9 9 9 9 10 9 8 8 8 7 7 7 7
11 12 12 12 12 12 13 15 14 12 11 12 11 11 11 11 11 12 12 13 12 12 11 10 10 10 10 10 11 10 11 10 12 10 10 9 9 10 10 10 11 11 10 10 11 11 11 11 11 9 8 8 8 9
11 12 12 13 12 12 13 15 13 12 12 12 11 12 13 12 13 14 15 13 11 11 11 10 11 10 10 9 8 10 12 12 10 10 10 9 9 9 9 10 10 11 11 12 11 11 11 11 11 11 10 10 10 10
12 12 13 13 13 13 13 13 13 12 12 10 12 10 12 14 14 14 12 12 11 11 10 10 10 10 9 10 9 12 10 9 11 9 9 8 8 9 9 9 10 10 11 11 10 10 11 11 11 11 11 10 11 10
12 13 13 13 14 13 13 12 12 12 11 11 12 11 13 15 14 13 12 11 11 10 9 10 10 10 10 11 10 10 12 11 10 9 8 7 8 7 7 7 7 7 8 8 10 9 10 11 10 11 11 11 11 10
13 13 13 13 13 13 12 11 11 11 11 11 12 14 14 14 14 13 12 11 11 10 9 10 11 12 12 10 12 12 12 10 10 8 8 7 8 7 7 8 8 8 9 8 9 9 10 9 9 10 11 11 11 10
13 13 12 13 13 13 11 10 10 10 12 14 14 14 14 13 13 12 12 12 12 12 12 11 14 14 10 11 12 10 10 9 9 10 10 8 7 7 8 8 9 9 9 9 8 7 8 9 9 9 8 11 12 10
12 12 12 12 12 12 11 11 11 13 13 13 15 14 13 12 12 12 12 12 12 11 11 14 11 13 12 13 10 9 8 8 8 8 7 7 7 8 9 8 9 9 9 9 9 9 9 8 9 10 9 10 10 10
12 12 12 12 12 12 10 11 11 13 13 14 13 12 12 11 10 12 11 12 12 11 11 10 12 11 10 8 9 9 8 7 8 7 7 7 8 8 9 9 9 8 7 6 7 7 8 9 8 9 10 9 9 9
13 13 14 13 12 10 11 12 14 13 14 13 12 12 11 11 11 11 12 11 11 11 13 13 11 9 9 8 7 8 8 7 7 7 7 6 8 8 7 7 7 7 7 7 7 7 7 8 9 9 8 9 10 9
13 13 13 13 11 10 10 11 14 13 13 13 12 12 12 12 13 13 13 10 12 12 12 10 10 10 10 11 11 11 9 9 7 7 7 6 7 7 7 7 8 7 7 7 6 7 7 7 9 10 10 9 9 10
13 12 12 11 11 11 10 12 12 13 13 13 12 11 13 13 13 13 11 13 12 11 10 10 10 9 9 10 12 12 11 10 10 9 9 8 5 5 6 7 7 7 7 6 6 6 6 8 9 9 9 9 9 9
12 12 12 12 12 10 11 14 15 14 16 14 12 14 14 13 13 12 14 12 11 11 11 11 12 12 11 11 12 11 10 11 8 9 9 8 7 9 9 9 9 8 6 6 7 7 7 8 9 9 9 9 9 9
13 12 13 13 12 11 14 15 13 13 13 14 14 16 16 14 12 14 15 12 11 11 11 10 11 8 10 9 7 9 10 10 9 9 9 9 7 7 8 9 9 8 7 7 7 7 7 8 8 10 9 9 8 8
9 12 10 8 11 14 16 16 14 14 15 15 16 15 14 13 15 14 15 13 11 11 10 9 9 9 8 6 7 9 11 11 9 7 9 9 9 8 8 8 8 7 8 8 8 8 8 9 8 8 8 9 9 8
9 12 11 14 15 16 16 15 15 15 15 16 15 13 13 14 17 17 14 11 11 10 8 9 8 8 7 10 7 8 11 12 11 9 9 9 10 9 7 6 6 8 8 8 8 9 9 9 9 9 9 8 8 8
10 13 13 11 14 14 14 14 14 14 16 17 15 15 15 17 18 16 12 11 11 13 15 14 13 11 10 10 11 12 12 12 12 12 11 10 11 11 10 9 8 9 9 9 9 10 10 10 10 9 9 9 9 9
12 13 15 15 15 14 17 14 15 15 15 14 14 16 17 17 17 13 12 15 17 17 16 15 16 15 14 14 13 12 11 12 12 11 10 10 10 10 10 10 10 10 10 10 10 10 10 9 10 9 9 9 9 9
12 13 14 15 15 15 15 15 15 14 13 13 14 14 14 14 14 13 15 17 16 15 13 13 13 14 14 13 13 12 12 11 10 7 7 6 7 10 10 10 10 10 10 10 10 10 10 10 10 9 9 9 9 8
13 12 14 16 17 17 16 13 14 12 12 13 13 13 13 13 16 17 17 15 14 14 15 15 14 14 12 12 11 10 11 11 12 11 7 6 9 11 10 10 10 10 10 10 10 10 9 9 9 9 9 9 8 8
13 13 15 15 17 16 14 13 13 13 13 13 12 14 14 14 17 17 18 17 17 16 14 13 13 14 13 11 11 10 9 11 11 12 12 12 11 11 11 11 11 10 10 10 10 10 10 9 9 9 9 9 9 8
13 15 16 18 16 14 14 14 14 14 13 13 13 12 13 13 15 13 17 17 15 13 15 14 12 13 15 14 14 14 13 13 13 12 12 12 12 11 11 11 11 11 10 10 10 10 10 10 9 9 9 9 8 8
15 16 16 15 14 15 14 14 15 14 14 13 13 13 13 14 16 14 15 16 17 17 17 17 16 16 15 14 14 13 13 13 13 12 12 12 12 12 12 12 12 11 11 11 10 10 10 10 10 9 9 9 8 8

GFSWCAN_925_temp_072.txt.gz
Temp
13 13 13 12 12 12 13 13 13 13 13 12 11 13 14 15 15 15 14 14 14 9 10 12 13 11 10 9 9 10 9 8 6 5 4 4 3 5 4 7 9 8 6 6 8 9 10 10 11 13 9 8 9 8
13 13 11 11 11 12 13 13 13 13 13 13 11 12 13 14 14 15 14 13 13 11 11 13 15 16 16 14 8 7 9 7 6 4 3 2 4 5 5 5 7 7 7 7 8 8 9 10 10 9 8 7 7 7
12 12 11 11 12 12 13 13 13 13 13 13 12 12 12 13 13 14 13 13 12 8 9 11 12 15 16 16 17 10 7 7 6 5 3 3 4 2 5 4 7 8 6 7 8 8 8 8 8 8 7 7 7 6
13 12 12 12 12 12 13 13 13 13 13 13 12 12 12 12 12 12 12 12 11 8 9 11 13 14 15 16 16 15 11 8 6 5 5 5 4 4 3 4 5 6 6 6 6 6 6 7 8 8 7 7 7 7
13 12 12 12 12 12 12 12 13 13 13 13 12 12 12 12 12 12 12 12 11 11 9 9 11 14 15 15 15 14 12 7 7 7 7 7 5 5 5 6 6 5 6 6 7 7 7 8 7 7 7 7 7 8
12 12 12 11 12 12 13 13 13 13 13 12 12 12 12 12 12 12 9 11 12 12 9 9 10 11 13 13 13 11 10 9 8 7 8 7 7 7 6 7 6 6 5 6 8 6 7 8 8 7 7 7 8 8
12 12 11 11 12 12 13 13 13 13 13 13 13 12 12 12 11 11 10 12 12 12 11 9 9 11 12 11 10 10 11 11 11 9 9 9 8 8 5 7 9 7 7 6 7 7 8 7 8 8 7 8 8 8
11 11 10 11 12 12 13 13 13 13 13 13 13 12 11 11 12 12 12 12 12 12 11 10 9 10 13 11 11 10 10 10 10 10 10 9 7 8 8 9 9 9 7 6 6 7 8 7 7 7 7 7 7 6
10 10 9 10 12 12 13 13 13 13 13 13 12 11 11 11 11 12 11 12 12 12 10 9 9 12 11 10 10 10 11 11 10 11 10 9 7 8 8 9 9 9 8 9 7 7 6 7 7 7 6 6 6 6
9 9 10 11 12 12 13 12 12 13 12 12 11 10 10 11 12 11 11 9 9 9 9 9 8 11 11 10 11 11 11 11 11 11 10 9 8 9 9 9 9 8 9 9 8 8 7 7 7 8 7 7 6 6
9 9 10 11 12 12 12 12 12 13 12 11 10 10 11 11 11 9 10 10 11 11 8 8 8 10 9 12 12 11 11 10 10 11 11 10 9 8 10 9 9 9 8 9 10 11 10 9 9 8 8 8 7 7
9 10 11 12 12 12 12 13 13 11 11 12 11 11 11 10 10 12 11 12 12 13 10 10 10 10 9 9 11 10 11 10 11 9 10 8 8 9 8 10 10 10 10 10 10 10 10 9 10 9 8 9 9 9
10 11 12 12 12 12 13 14 11 12 12 11 11 12 11 10 10 14 14 13 12 11 10 10 11 10 11 9 8 9 13 12 10 11 11 8 8 8 8 10 10 11 12 11 10 10 11 11 11 10 10 10 10 9
11 12 12 12 12 13 12 12 12 12 11 10 11 10 12 13 13 14 13 12 11 10 10 9 9 10 8 10 8 12 10 10 11 9 8 8 8 8 7 8 9 10 9 9 10 9 10 10 10 11 11 10 11 10
12 12 12 13 13 13 12 12 11 11 11 11 11 11 12 12 14 13 11 11 11 9 9 10 10 9 9 10 9 9 11 11 9 9 8 7 7 7 7 7 7 7 8 8 8 8 9 9 9 9 10 10 11 10
12 12 12 13 13 12 12 11 10 10 10 10 10 13 12 13 14 13 11 11 9 8 8 9 10 11 11 10 12 12 11 10 9 7 8 7 8 7 7 7 8 8 8 9 9 8 8 8 8 8 9 10 10 10
13 12 12 12 12 12 11 10 10 9 11 12 12 11 12 13 13 12 11 11 9 11 12 10 13 14 9 11 11 9 10 9 8 10 7 7 6 6 6 7 8 9 8 9 9 8 9 8 10 9 7 9 10 11
12 12 12 11 11 11 10 10 10 13 12 12 13 13 12 12 12 11 10 10 11 10 10 13 9 13 12 12 10 9 7 7 6 7 6 6 6 7 8 7 8 8 8 8 8 8 8 9 9 8 8 8 8 8
12 12 11 12 11 11 10 10 10 12 12 12 12 11 11 11 10 10 10 10 10 9 9 9 12 10 10 8 9 8 7 7 8 7 6 7 7 7 7 7 7 7 7 6 6 6 6 7 7 8 9 7 7 8
13 13 13 12 11 10 11 11 11 11 13 12 11 11 11 11 10 10 10 10 10 10 12 12 11 9 8 8 7 8 7 6 7 7 7 5 6 7 6 6 6 6 6 6 6 6 6 7 7 6 6 7 7 8
12 12 12 11 10 10 9 10 11 11 12 12 11 11 12 10 12 12 12 9 11 11 12 10 10 9 8 9 10 9 8 8 7 7 8 6 6 6 6 6 7 7 5 5 5 6 6 6 6 7 7 7 8 7
12 11 11 11 10 10 9 11 11 11 12 12 12 11 12 13 13 12 10 13 12 12 10 10 9 9 8 9 10 10 10 9 8 8 8 8 6 6 7 6 7 5 4 5 6 5 6 7 6 7 7 7 8 8
12 11 11 10 11 10 10 12 13 13 15 14 12 13 13 13 12 10 13 12 12 10 9 10 10 10 9 10 10 10 9 9 7 6 7 8 8 8 7 6 6 6 5 6 6 7 7 7 8 8 9 8 8 7
12 11 11 12 11 10 12 13 12 13 13 13 13 15 15 13 11 13 14 12 11 9 9 8 9 7 8 8 7 8 9 9 7 7 7 8 7 7 7 7 7 7 7 6 7 7 7 7 8 8 8 8 8 8
9 11 10 8 10 12 14 15 14 13 14 14 14 14 14 12 14 14 14 13 10 9 8 8 8 8 8 6 6 8 9 10 9 6 8 8 8 7 7 8 8 7 7 7 7 7 8 8 8 8 8 8 8 7
9 11 10 13 14 14 15 15 14 14 14 15 14 13 12 13 15 16 14 12 10 9 7 8 7 7 7 8 7 7 10 10 10 9 9 10 10 9 7 6 6 8 8 8 8 8 8 8 8 8 8 8 7 7
9 12 11 10 12 13 13 13 13 13 16 16 14 14 14 16 17 15 11 9 10 12 13 13 13 11 9 10 10 12 12 11 11 11 11 10 10 9 9 8 8 9 9 9 9 9 9 9 9 9 8 8 8 8
11 12 13 14 13 12 16 14 14 14 14 13 13 15 16 17 16 13 11 15 15 15 14 14 15 15 14 13 12 12 11 10 11 11 10 10 9 9 9 9 9 9 9 9 10 10 10 9 9 9 9 8 8 8
11 11 12 13 14 14 13 14 14 13 13 13 14 14 14 13 13 12 14 16 16 16 12 11 12 12 12 12 12 12 12 10 10 8 8 7 7 10 9 9 9 9 9 10 10 10 10 9 9 9 9 8 8 8
12 10 12 14 14 15 14 12 14 12 11 12 12 12 12 12 15 15 15 14 13 13 14 14 14 12 10 10 9 9 10 11 11 10 8 7 9 11 10 10 10 10 9 10 9 9 9 9 9 9 8 8 8 8
11 11 13 13 14 13 13 12 12 12 12 12 12 13 14 13 15 15 14 15 15 15 13 12 12 13 12 11 9 8 8 10 11 11 12 12 12 11 11 11 11 10 10 10 10 9 9 9 9 9 9 8 8 8
11 12 13 15 14 13 13 14 14 13 12 12 13 12 13 13 15 12 15 15 13 12 13 13 12 12 14 14 14 13 14 14 13 11 11 11 12 11 11 11 11 10 10 10 10 9 9 9 9 9 8 8 8 8
13 13 14 14 14 14 13 14 14 14 13 13 13 12 12 13 15 13 14 14 14 14 15 15 14 14 15 14 14 13 14 14 14 13 12 11 12 12 11 11 11 11 11 11 11 10 10 9 9 9 9 9 8 8

GFSWCAN_925_temp_075.txt.gz
Temp
11 11 12 12 11 11 12 13 13 13 13 13 11 12 13 14 15 15 13 14 13 15 15 14 15 14 13 14 15 13 14 13 13 12 12 11 12 9 10 12 13 14 14 13 13 14 15 14 14 15 13 12 13 12
10 11 11 10 11 11 12 13 13 13 12 12 12 11 12 13 14 14 13 13 13 14 15 13 14 15 16 16 15 12 14 13 13 10 9 9 9 8 9 12 11 12 13 13 14 15 13 13 13 12 12 12 11 11
10 11 11 12 11 12 12 12 12 13 13 12 13 13 13 13 13 13 13 12 12 14 15 15 16 14 15 15 16 16 12 12 11 11 11 10 9 9 9 9 11 11 11 13 12 14 13 13 13 12 11 11 11 11
10 11 12 11 11 12 12 12 12 12 13 13 13 13 12 12 12 13 12 12 12 11 14 16 13 14 14 14 15 15 12 10 11 12 12 12 12 9 10 10 11 12 11 12 12 12 11 12 12 12 11 11 10 10
12 11 11 11 11 12 12 12 12 13 13 13 13 12 12 12 12 12 12 12 12 13 14 15 13 12 13 13 13 13 13 13 12 12 13 13 11 10 10 10 10 11 12 12 14 14 14 13 12 11 11 11 11 11
12 12 11 11 11 12 12 12 12 13 13 13 13 12 12 12 12 12 14 11 12 11 14 14 13 14 12 12 13 12 13 12 13 12 13 12 11 13 10 10 13 12 12 13 14 13 13 13 12 11 11 11 11 11
10 11 10 10 11 12 12 12 13 13 13 13 13 12 12 12 12 12 13 11 12 11 14 14 15 14 13 12 13 13 13 13 14 11 10 11 10 9 9 10 13 12 12 11 11 11 11 11 12 11 10 11 10 11
11 11 10 10 10 11 11 12 12 13 13 13 12 12 12 12 12 12 11 12 12 11 13 13 15 15 13 14 14 12 11 11 10 10 10 10 8 9 8 11 12 11 10 11 11 12 13 13 12 11 10 10 11 11
10 10 10 10 11 11 11 12 11 13 13 12 12 12 11 11 12 11 11 11 12 12 14 13 14 16 14 13 12 12 11 10 10 10 10 9 7 8 9 10 11 11 9 10 11 11 11 11 12 12 11 11 11 12
10 10 9 10 11 11 11 11 11 13 13 12 11 11 13 11 11 11 11 13 13 13 12 13 12 14 14 13 12 12 12 11 12 11 11 10 10 11 12 12 11 10 9 10 10 9 10 11 12 12 12 12 11 12
9 9 9 10 11 11 11 11 12 12 12 11 11 13 10 11 11 12 13 13 12 13 12 11 12 13 12 13 13 13 13 12 12 12 12 11 11 13 13 12 10 9 10 11 11 11 12 13 13 13 13 12 11 11
9 9 10 11 11 11 11 11 11 10 11 11 11 11 10 12 13 14 14 13 13 15 13 12 13 12 12 11 12 11 13 12 13 11 11 10 13 13 12 12 10 10 11 12 11 11 12 12 12 13 13 12 12 11
10 11 11 11 11 12 12 13 10 11 11 11 11 13 13 13 12 15 16 16 15 14 14 13 14 12 11 11 12 13 13 12 11 11 11 13 13 13 12 12 11 10 11 12 12 12 12 11 12 11 12 12 11 11
11 11 11 12 12 12 12 12 12 11 11 13 14 10 13 15 15 16 17 17 16 14 14 13 13 13 11 12 12 14 13 13 13 12 12 14 14 13 12 12 12 13 13 13 13 12 12 12 12 11 11 11 11 11
11 12 12 12 12 12 12 12 11 11 10 14 14 12 14 16 15 15 14 14 14 13 13 12 12 13 13 13 13 13 13 13 13 14 14 14 12 11 12 12 12 13 13 13 12 12 11 11 11 11 11 10 10 11
12 11 11 12 12 12 12 11 10 10 10 13 13 15 16 15 16 15 15 16 15 14 13 14 14 14 14 14 14 14 14 14 14 14 15 13 12 11 11 11 11 11 10 11 10 10 11 11 9 10 10 10 9 10
12 11 11 11 12 11 10 9 10 11 13 13 15 14 15 15 16 16 16 16 13 16 17 15 15 15 12 14 14 13 14 15 15 15 14 11 10 10 10 10 11 10 9 9 9 9 8 8 7 8 10 9 9 8
11 11 11 11 12 11 10 9 10 13 13 15 15 17 15 15 16 16 15 14 15 16 15 16 14 15 15 14 15 15 14 14 13 12 11 10 10 9 9 9 9 8 7 8 7 7 8 8 8 7 7 6 7 7
11 11 11 11 11 11 11 11 10 14 15 15 15 14 14 15 14 14 15 13 13 13 14 14 15 14 16 15 15 14 13 13 14 11 10 9 9 9 9 9 8 8 8 8 7 7 7 7 6 6 7 6 7 7
12 12 13 12 12 10 12 13 11 13 15 15 14 15 15 16 15 14 15 14 15 15 15 16 17 16 16 15 13 14 13 12 11 13 12 10 8 9 8 9 9 8 9 8 7 7 7 7 6 6 7 7 7 6
11 11 11 11 10 10 11 13 14 14 15 15 14 15 16 15 16 16 16 14 15 17 17 17 17 16 14 12 12 12 12 11 12 12 11 11 9 9 9 9 8 8 8 8 8 7 7 6 6 5 7 7 7 6
11 11 10 10 10 10 10 12 14 14 14 15 14 15 16 17 17 17 14 15 17 18 17 17 16 14 13 13 12 11 11 9 9 9 9 9 12 11 10 8 9 8 8 9 9 8 7 7 7 7 7 7 7 7
11 10 10 10 12 11 11 12 14 15 16 16 15 16 16 16 16 13 16 17 17 15 14 14 12 12 13 10 10 10 9 10 11 11 10 11 9 9 9 9 9 9 9 8 7 7 7 7 7 8 8 8 8 9
11 10 12 13 12 11 14 15 14 15 15 16 16 17 17 17 15 16 17 18 16 13 14 12 12 12 11 12 13 12 10 10 10 9 9 11 11 9 9 9 8 8 7 8 8 8 8 8 8 9 9 10 9 9
10 11 10 8 12 13 15 16 16 16 17 17 16 17 17 16 17 18 18 18 15 14 13 12 13 15 15 14 12 11 9 11 11 11 9 10 9 9 10 9 8 7 8 10 9 9 8 8 9 10 9 9 9 9
9 12 11 15 15 15 16 17 16 17 17 17 17 16 16 17 17 18 19 17 15 14 13 14 14 13 13 14 14 13 11 10 10 12 10 10 10 11 11 11 11 9 8 8 10 10 10 10 10 10 9 9 8 9
10 14 14 13 14 15 16 15 15 16 17 18 18 16 17 17 18 19 17 14 15 14 13 13 14 15 15 12 11 11 10 10 11 11 10 9 9 9 9 10 10 9 8 8 9 9 10 10 10 10 9 9 9 9
14 14 15 15 15 16 17 17 17 17 17 16 16 17 18 19 19 19 18 14 14 13 13 12 12 14 14 13 12 10 9 9 10 10 9 8 8 8 9 8 9 9 9 9 9 9 9 10 10 9 9 9 9 8
13 14 14 15 16 16 16 17 18 17 16 16 17 18 19 18 18 17 15 14 13 13 13 12 11 12 12 12 11 10 10 11 11 12 12 12 11 10 9 9 9 9 9 9 9 9 9 9 9 9 9 9 8 8
14 14 15 15 16 17 18 17 18 16 15 16 17 16 16 17 15 14 13 13 13 15 15 15 13 13 13 12 11 9 9 11 12 13 13 13 12 11 10 9 9 9 9 9 9 9 9 9 9 9 9 9 9 9
14 14 15 16 17 18 17 16 16 15 16 15 15 17 18 17 15 13 13 14 15 14 14 14 13 13 12 12 12 11 11 10 10 10 11 12 12 11 11 10 10 10 9 9 10 10 10 10 9 9 9 9 9 9
14 15 16 17 18 17 15 16 18 17 16 16 16 16 16 16 17 15 13 13 13 14 15 15 14 13 13 13 13 12 14 13 12 12 11 11 11 11 11 10 10 10 10 10 10 10 10 9 10 10 9 9 9 9
15 16 16 17 18 18 17 17 18 17 16 16 16 15 16 17 17 15 13 12 13 15 15 14 14 14 14 14 13 13 14 14 14 13 12 12 12 11 11 11 11 11 10 10 10 10 10 10 10 9 9 9 9 9